Regional Weather Roundup
Issued by NWS

Home | Current Version | Previous Version | Graphics & Text | Print | Product List | Glossary On
Versions: 1 2 3 4 5 6 7 8 9 10 11 12 13 14 15 16 17 18 19 20 21 22 23 24 25 26 27 28 29 30 31 32 33 34 35 36 37 38 39 40 41 42 43 44 45 46 47 48 49 50
000
ASUS43 KFSD 251802
RWRSD

WEATHER ROUNDUP FOR SOUTH DAKOTA
NATIONAL WEATHER SERVICE SIOUX FALLS SD
1200 PM CST THU DEC 25 2014

NOTE: "FAIR" INDICATES FEW OR NO CLOUDS BELOW 12,000 FEET WITH NO
SIGNIFICANT WEATHER AND/OR OBSTRUCTIONS TO VISIBILITY.


SDZ001>005-009-010-012>017-251900-
NORTHWEST AND NORTH CENTRAL SOUTH DAKOTA

CITY           SKY/WX    TMP DP  RH WIND       PRES   REMARKS
BUFFALO          N/A     27  22  81 N15       29.72R WCI  15
FAITH            N/A     28  22  78 N16       29.77R WCI  16
MOBRIDGE       CLOUDY    30  24  78 N12       29.75S WCI  20
$$

SDZ012>016-024>037-041>051-057-063-072>074-251900-
SOUTHWEST AND SOUTH CENTRAL SOUTH DAKOTA

CITY           SKY/WX    TMP DP  RH WIND       PRES   REMARKS
RAPID CTY ARPT LGT SNOW  28  25  88 N23       29.72R VSB 1   WCI  14
PIERRE         LGT SNOW  31  29  92 N17       29.73S FOG     WCI  19
CUSTER         LGT SNOW  24  18  77 NE16G24   29.60R VSB 3/4 WCI  11
ELLSWORTH AFB  FLURRIES  27  26  95 N15       29.74R WCI  15
PHILIP         LGT SNOW  31  27  85 N16       29.73S FOG     WCI  20
PINE RIDGE     LGT SNOW  31  26  82 NE15      29.66R WCI  20
WINNER         CLOUDY    33  30  88 N17       29.66F WCI  22
$$

SDZ004>011-016>023-039-040-251900-
NORTHEAST SOUTH DAKOTA

CITY           SKY/WX    TMP DP  RH WIND       PRES   REMARKS
ABERDEEN       CLOUDY    30  24  78 N16       29.77R WCI  19
WATERTOWN      LGT SNOW  31  28  89 N9        29.69R VSB 1   WCI  23
$$

SDZ017-020-022-023-036>040-048>070-251900-
SOUTHEAST SOUTH DAKOTA

CITY           SKY/WX    TMP DP  RH WIND       PRES   REMARKS
SIOUX FALLS    CLOUDY    33  29  85 E7        29.67R WCI  27
HURON          SNOW      30  29  96 N10       29.72R VSB 1/2 WCI  21
CHAMBERLAIN    CLOUDY    31  29  92 N12       29.68R WCI  22
MITCHELL       CLOUDY    33  30  88 N13       29.69S WCI  24
YANKTON        FAIR      36  28  75 NE8       29.64F
$$

ABBREVIATIONS USED IN REMARKS
   TC - TEMPERATURE IN CELSIUS
  WCI - WIND CHILL INDEX
   HX - HEAT INDEX
  VSB - VISIBILITY



USA.gov is the U.S. government's official web portal to all federal, state and local government web resources and services.